Location: Newark
(58.9986°N, 38.5006°E)
Time: 14:25:22
(UTC+00:00)

N. Korean satellite - Pass Details

Date: 13 December 2019
Orbit: 454 x 507 km, 97.2° (Epoch: 28 January)

Event Time Altitude Azimuth Distance (km) Brightness Sun altitude
Rises 05:12:52 0° 7° (N) 2,569 9.9 -6.5°
Reaches altitude 10° 05:15:32 10° 345° (NNW) 1,671 8.8 -6.2°
Maximum altitude 05:17:47 16° 306° (NW) 1,325 8.1 -6.0°
Drops below altitude 10° 05:20:00 10° 267° (W) 1,645 8.8 -5.7°
Sets 05:22:37 0° 245° (WSW) 2,507 9.9 -5.5°
